Year,Month,Day,Hour,Minute,Value (Times are PST for windgust in km/hr)
2010,04,25,00,00,16.10
2010,04,25,00,01,9.60
2010,04,25,00,02,8.10
2010,04,25,00,03,8.10
2010,04,25,00,04,14.50
2010,04,25,00,05,19.30
2010,04,25,00,06,19.30
2010,04,25,00,07,16.10
2010,04,25,00,08,19.30
2010,04,25,00,09,11.30
2010,04,25,00,10,8.10
2010,04,25,00,11,4.80
2010,04,25,00,12,19.30
2010,04,25,00,13,16.10
2010,04,25,00,14,16.10
2010,04,25,00,15,17.70
2010,04,25,00,16,11.30
2010,04,25,00,17,16.10
2010,04,25,00,18,14.50
2010,04,25,00,19,11.30
2010,04,25,00,20,14.50
2010,04,25,00,21,16.10
2010,04,25,00,22,14.50
2010,04,25,00,23,11.30
2010,04,25,00,24,16.10
2010,04,25,00,25,17.70
2010,04,25,00,26,16.10
2010,04,25,00,27,17.70
2010,04,25,00,28,9.60
2010,04,25,00,29,12.90
2010,04,25,00,30,6.40
2010,04,25,00,31,6.40
2010,04,25,00,32,3.20
2010,04,25,00,33,11.30
2010,04,25,00,34,14.50
2010,04,25,00,35,12.90
2010,04,25,00,36,16.10
2010,04,25,00,37,17.70
2010,04,25,00,38,14.50
2010,04,25,00,39,9.60
2010,04,25,00,40,11.30
2010,04,25,00,41,6.40
2010,04,25,00,42,16.10
2010,04,25,00,43,16.10
2010,04,25,00,44,11.30
2010,04,25,00,45,16.10
2010,04,25,00,46,16.10
2010,04,25,00,47,11.30
2010,04,25,00,48,6.40
2010,04,25,00,49,8.10
2010,04,25,00,50,6.40
2010,04,25,00,51,14.50
2010,04,25,00,52,11.30
2010,04,25,00,53,9.60
2010,04,25,00,54,17.70
2010,04,25,00,55,14.50
2010,04,25,00,56,11.30
2010,04,25,00,57,11.30
2010,04,25,00,58,16.10
2010,04,25,00,59,11.30
2010,04,25,01,00,9.60
2010,04,25,01,01,16.10
2010,04,25,01,02,14.50
2010,04,25,01,03,11.30
2010,04,25,01,04,11.30
2010,04,25,01,05,6.40
2010,04,25,01,06,8.10
2010,04,25,01,07,17.70
2010,04,25,01,08,14.50
2010,04,25,01,09,9.60
2010,04,25,01,10,6.40
2010,04,25,01,11,8.10
2010,04,25,01,12,16.10
2010,04,25,01,13,9.60
2010,04,25,01,14,17.70
2010,04,25,01,15,9.60
2010,04,25,01,16,9.60
2010,04,25,01,17,11.30
2010,04,25,01,18,11.30
2010,04,25,01,19,11.30
2010,04,25,01,20,14.50
2010,04,25,01,21,8.10
2010,04,25,01,22,9.60
2010,04,25,01,23,9.60
2010,04,25,01,24,11.30
2010,04,25,01,25,6.40
2010,04,25,01,26,9.60
2010,04,25,01,27,9.60
2010,04,25,01,28,8.10
2010,04,25,01,29,6.40
2010,04,25,01,30,14.50
2010,04,25,01,31,8.10
2010,04,25,01,32,14.50
2010,04,25,01,33,9.60
2010,04,25,01,34,4.80
2010,04,25,01,35,9.60
2010,04,25,01,36,9.60
2010,04,25,01,37,8.10
2010,04,25,01,38,6.40
2010,04,25,01,39,8.10
2010,04,25,01,40,11.30
2010,04,25,01,41,6.40
2010,04,25,01,42,9.60
2010,04,25,01,43,11.30
2010,04,25,01,44,8.10
2010,04,25,01,45,9.60
2010,04,25,01,46,11.30
2010,04,25,01,47,9.60
2010,04,25,01,48,8.10
2010,04,25,01,49,9.60
2010,04,25,01,50,6.40
2010,04,25,01,51,11.30
2010,04,25,01,52,4.80
2010,04,25,01,53,12.90
2010,04,25,01,54,9.60
2010,04,25,01,55,8.10
2010,04,25,01,56,8.10
2010,04,25,01,57,6.40
2010,04,25,01,58,6.40
2010,04,25,01,59,4.80
2010,04,25,02,00,8.10
2010,04,25,02,01,8.10
2010,04,25,02,02,9.60
2010,04,25,02,03,14.50
2010,04,25,02,04,11.30
2010,04,25,02,05,6.40
2010,04,25,02,06,6.40
2010,04,25,02,07,8.10
2010,04,25,02,08,8.10
2010,04,25,02,09,19.30
2010,04,25,02,10,9.60
2010,04,25,02,11,9.60
2010,04,25,02,12,12.90
2010,04,25,02,13,11.30
2010,04,25,02,14,12.90
2010,04,25,02,15,14.50
2010,04,25,02,16,9.60
2010,04,25,02,17,4.80
2010,04,25,02,18,11.30
2010,04,25,02,19,12.90
2010,04,25,02,20,16.10
2010,04,25,02,21,9.60
2010,04,25,02,22,14.50
2010,04,25,02,23,12.90
2010,04,25,02,24,8.10
2010,04,25,02,25,11.30
2010,04,25,02,26,9.60
2010,04,25,02,27,9.60
2010,04,25,02,28,9.60
2010,04,25,02,29,11.30
2010,04,25,02,30,3.20
2010,04,25,02,31,3.20
2010,04,25,02,33,3.20
2010,04,25,02,34,4.80
2010,04,25,02,35,6.40
2010,04,25,02,36,3.20
2010,04,25,02,38,3.20
2010,04,25,02,39,3.20
2010,04,25,02,41,1.60
2010,04,25,02,42,1.60
2010,04,25,02,43,4.80
2010,04,25,02,44,4.80
2010,04,25,02,45,1.60
2010,04,25,02,46,3.20
2010,04,25,02,47,3.20
2010,04,25,02,48,4.80
2010,04,25,02,49,4.80
2010,04,25,02,53,1.60
2010,04,25,03,01,1.60
2010,04,25,03,03,1.60
2010,04,25,03,04,3.20
2010,04,25,03,14,6.40
2010,04,25,03,15,4.80
2010,04,25,03,16,4.80
2010,04,25,03,17,3.20
2010,04,25,03,18,1.60
2010,04,25,03,19,1.60
2010,04,25,03,20,1.60
2010,04,25,03,21,3.20
2010,04,25,03,22,1.60
2010,04,25,03,23,1.60
2010,04,25,03,24,3.20
2010,04,25,03,25,1.60
2010,04,25,03,26,3.20
2010,04,25,03,27,4.80
2010,04,25,03,28,1.60
2010,04,25,03,29,1.60
2010,04,25,03,30,1.60
2010,04,25,03,32,4.80
2010,04,25,03,33,3.20
2010,04,25,03,34,1.60
2010,04,25,03,58,3.20
2010,04,25,03,59,1.60
2010,04,25,04,00,1.60
2010,04,25,04,01,1.60
2010,04,25,04,02,3.20
2010,04,25,04,03,3.20
2010,04,25,04,04,1.60
2010,04,25,04,07,3.20
2010,04,25,04,19,1.60
2010,04,25,04,21,1.60
2010,04,25,04,22,1.60
2010,04,25,04,24,1.60
2010,04,25,04,25,1.60
2010,04,25,04,26,3.20
2010,04,25,04,27,1.60
2010,04,25,04,28,4.80
2010,04,25,04,29,4.80
2010,04,25,04,30,3.20
2010,04,25,04,31,4.80
2010,04,25,04,32,3.20
2010,04,25,04,33,3.20
2010,04,25,04,36,4.80
2010,04,25,04,37,3.20
2010,04,25,04,38,8.10
2010,04,25,04,39,4.80
2010,04,25,04,40,8.10
2010,04,25,04,41,6.40
2010,04,25,04,42,6.40
2010,04,25,04,43,4.80
2010,04,25,04,44,3.20
2010,04,25,04,45,6.40
2010,04,25,04,46,8.10
2010,04,25,04,47,6.40
2010,04,25,04,48,8.10
2010,04,25,04,49,6.40
2010,04,25,04,50,8.10
2010,04,25,04,51,8.10
2010,04,25,04,52,8.10
2010,04,25,04,53,6.40
2010,04,25,04,54,3.20
2010,04,25,04,55,9.60
2010,04,25,04,56,6.40
2010,04,25,04,57,8.10
2010,04,25,04,58,6.40
2010,04,25,04,59,8.10
2010,04,25,05,00,8.10
2010,04,25,05,01,6.40
2010,04,25,05,02,4.80
2010,04,25,05,03,6.40
2010,04,25,05,04,4.80
2010,04,25,05,05,6.40
2010,04,25,05,06,6.40
2010,04,25,05,07,9.60
2010,04,25,05,08,8.10
2010,04,25,05,09,6.40
2010,04,25,05,10,6.40
2010,04,25,05,11,8.10
2010,04,25,05,12,9.60
2010,04,25,05,13,8.10
2010,04,25,05,14,6.40
2010,04,25,05,15,9.60
2010,04,25,05,16,6.40
2010,04,25,05,17,8.10
2010,04,25,05,18,8.10
2010,04,25,05,19,6.40
2010,04,25,05,20,9.60
2010,04,25,05,21,9.60
2010,04,25,05,22,8.10
2010,04,25,05,23,6.40
2010,04,25,05,24,6.40
2010,04,25,05,25,8.10
2010,04,25,05,26,4.80
2010,04,25,05,27,3.20
2010,04,25,05,28,8.10
2010,04,25,05,29,4.80
2010,04,25,05,30,6.40
2010,04,25,05,31,6.40
2010,04,25,05,32,8.10
2010,04,25,05,33,6.40
2010,04,25,05,34,4.80
2010,04,25,05,35,3.20
2010,04,25,05,36,4.80
2010,04,25,05,37,6.40
2010,04,25,05,38,6.40
2010,04,25,05,39,6.40
2010,04,25,05,40,6.40
2010,04,25,05,41,8.10
2010,04,25,05,42,4.80
2010,04,25,05,43,3.20
2010,04,25,05,44,3.20
2010,04,25,05,45,4.80
2010,04,25,05,46,6.40
2010,04,25,05,47,4.80
2010,04,25,05,48,3.20
2010,04,25,05,49,4.80
2010,04,25,05,50,4.80
2010,04,25,05,51,6.40
2010,04,25,05,52,4.80
2010,04,25,05,53,4.80
2010,04,25,05,54,6.40
2010,04,25,05,55,4.80
2010,04,25,05,56,4.80
2010,04,25,05,57,4.80
2010,04,25,05,58,4.80
2010,04,25,05,59,4.80
2010,04,25,06,00,4.80
2010,04,25,06,01,6.40
2010,04,25,06,02,6.40
2010,04,25,06,03,4.80
2010,04,25,06,04,4.80
2010,04,25,06,05,6.40
2010,04,25,06,06,3.20
2010,04,25,06,07,1.60
2010,04,25,06,08,4.80
2010,04,25,06,09,6.40
2010,04,25,06,10,4.80
2010,04,25,06,11,4.80
2010,04,25,06,12,4.80
2010,04,25,06,13,3.20
2010,04,25,06,14,4.80
2010,04,25,06,15,1.60
2010,04,25,06,16,1.60
2010,04,25,06,17,3.20
2010,04,25,06,18,4.80
2010,04,25,06,19,3.20
2010,04,25,06,20,4.80
2010,04,25,06,21,4.80
2010,04,25,06,22,4.80
2010,04,25,06,23,6.40
2010,04,25,06,24,6.40
2010,04,25,06,25,4.80
2010,04,25,06,26,3.20
2010,04,25,06,27,4.80
2010,04,25,06,28,3.20
2010,04,25,06,29,3.20
2010,04,25,06,30,4.80
2010,04,25,06,31,4.80
2010,04,25,06,32,4.80
2010,04,25,06,33,6.40
2010,04,25,06,34,4.80
2010,04,25,06,35,3.20
2010,04,25,06,36,6.40
2010,04,25,06,37,4.80
2010,04,25,06,38,6.40
2010,04,25,06,39,4.80
2010,04,25,06,40,4.80
2010,04,25,06,41,4.80
2010,04,25,06,42,3.20
2010,04,25,06,43,6.40
2010,04,25,06,44,6.40
2010,04,25,06,45,6.40
2010,04,25,06,46,4.80
2010,04,25,06,47,4.80
2010,04,25,06,48,6.40
2010,04,25,06,49,4.80
2010,04,25,06,50,1.60
2010,04,25,06,51,4.80
2010,04,25,06,52,6.40
2010,04,25,06,53,4.80
2010,04,25,06,54,6.40
2010,04,25,06,55,6.40
2010,04,25,06,56,4.80
2010,04,25,06,57,3.20
2010,04,25,06,58,4.80
2010,04,25,06,59,4.80
2010,04,25,07,00,4.80
2010,04,25,07,01,3.20
2010,04,25,07,02,1.60
2010,04,25,07,03,4.80
2010,04,25,07,04,1.60
2010,04,25,07,05,1.60
2010,04,25,07,06,3.20
2010,04,25,07,07,4.80
2010,04,25,07,08,1.60
2010,04,25,07,10,1.60
2010,04,25,07,13,3.20
2010,04,25,07,14,8.10
2010,04,25,07,15,9.60
2010,04,25,07,16,8.10
2010,04,25,07,17,6.40
2010,04,25,07,18,6.40
2010,04,25,07,19,4.80
2010,04,25,07,20,4.80
2010,04,25,07,21,1.60
2010,04,25,07,23,3.20
2010,04,25,07,24,4.80
2010,04,25,07,25,4.80
2010,04,25,07,26,4.80
2010,04,25,07,27,3.20
2010,04,25,07,28,3.20
2010,04,25,07,29,6.40
2010,04,25,07,30,8.10
2010,04,25,07,31,8.10
2010,04,25,07,32,9.60
2010,04,25,07,33,9.60
2010,04,25,07,34,6.40
2010,04,25,07,35,11.30
2010,04,25,07,36,11.30
2010,04,25,07,37,6.40
2010,04,25,07,38,16.10
2010,04,25,07,39,9.60
2010,04,25,07,40,9.60
2010,04,25,07,41,9.60
2010,04,25,07,42,8.10
2010,04,25,07,43,9.60
2010,04,25,07,44,11.30
2010,04,25,07,45,8.10
2010,04,25,07,46,9.60
2010,04,25,07,47,9.60
2010,04,25,07,48,8.10
2010,04,25,07,49,14.50
2010,04,25,07,50,8.10
2010,04,25,07,51,11.30
2010,04,25,07,52,11.30
2010,04,25,07,53,9.60
2010,04,25,07,54,6.40
2010,04,25,07,55,6.40
2010,04,25,07,56,4.80
2010,04,25,07,57,8.10
2010,04,25,07,58,11.30
2010,04,25,07,59,9.60
2010,04,25,08,00,6.40
2010,04,25,08,01,4.80
2010,04,25,08,02,6.40
2010,04,25,08,03,6.40
2010,04,25,08,04,9.60
2010,04,25,08,05,9.60
2010,04,25,08,06,9.60
2010,04,25,08,07,8.10
2010,04,25,08,08,6.40
2010,04,25,08,09,11.30
2010,04,25,08,10,14.50
2010,04,25,08,11,4.80
2010,04,25,08,12,4.80
2010,04,25,08,13,6.40
2010,04,25,08,14,6.40
2010,04,25,08,15,6.40
2010,04,25,08,16,11.30
2010,04,25,08,17,14.50
2010,04,25,08,18,8.10
2010,04,25,08,19,9.60
2010,04,25,08,20,9.60
2010,04,25,08,21,8.10
2010,04,25,08,22,8.10
2010,04,25,08,23,8.10
2010,04,25,08,24,9.60
2010,04,25,08,25,8.10
2010,04,25,08,26,8.10
2010,04,25,08,27,8.10
2010,04,25,08,28,11.30
2010,04,25,08,29,9.60
2010,04,25,08,30,8.10
2010,04,25,08,31,6.40
2010,04,25,08,32,9.60
2010,04,25,08,33,11.30
2010,04,25,08,34,12.90
2010,04,25,08,35,6.40
2010,04,25,08,36,8.10
2010,04,25,08,37,8.10
2010,04,25,08,38,6.40
2010,04,25,08,39,8.10
2010,04,25,08,40,8.10
2010,04,25,08,41,14.50
2010,04,25,08,42,8.10
2010,04,25,08,43,6.40
2010,04,25,08,44,12.90
2010,04,25,08,45,11.30
2010,04,25,08,46,6.40
2010,04,25,08,47,8.10
2010,04,25,08,48,1.60
2010,04,25,08,49,4.80
2010,04,25,08,50,14.50
2010,04,25,08,51,16.10
2010,04,25,08,52,9.60
2010,04,25,08,53,14.50
2010,04,25,08,54,11.30
2010,04,25,08,55,6.40
2010,04,25,08,56,4.80
2010,04,25,08,57,6.40
2010,04,25,08,58,8.10
2010,04,25,08,59,9.60
2010,04,25,09,00,8.10
2010,04,25,09,01,17.70
2010,04,25,09,02,12.90
2010,04,25,09,03,9.60
2010,04,25,09,04,17.70
2010,04,25,09,05,11.30
2010,04,25,09,06,11.30
2010,04,25,09,07,11.30
2010,04,25,09,08,14.50
2010,04,25,09,09,14.50
2010,04,25,09,10,9.60
2010,04,25,09,11,6.40
2010,04,25,09,12,6.40
2010,04,25,09,13,11.30
2010,04,25,09,14,9.60
2010,04,25,09,15,6.40
2010,04,25,09,16,8.10
2010,04,25,09,17,11.30
2010,04,25,09,18,6.40
2010,04,25,09,19,6.40
2010,04,25,09,20,14.50
2010,04,25,09,21,4.80
2010,04,25,09,22,9.60
2010,04,25,09,23,17.70
2010,04,25,09,24,9.60
2010,04,25,09,25,17.70
2010,04,25,09,26,16.10
2010,04,25,09,27,14.50
2010,04,25,09,28,17.70
2010,04,25,09,29,11.30
2010,04,25,09,30,19.30
2010,04,25,09,31,20.90
2010,04,25,09,32,14.50
2010,04,25,09,33,14.50
2010,04,25,09,34,14.50
2010,04,25,09,35,16.10
2010,04,25,09,36,11.30
2010,04,25,09,37,11.30
2010,04,25,09,38,11.30
2010,04,25,09,39,14.50
2010,04,25,09,40,17.70
2010,04,25,09,41,19.30
2010,04,25,09,42,16.10
2010,04,25,09,43,11.30
2010,04,25,09,44,8.10
2010,04,25,09,45,9.60
2010,04,25,09,46,11.30
2010,04,25,09,47,17.70
2010,04,25,09,48,17.70
2010,04,25,09,49,17.70
2010,04,25,09,50,16.10
2010,04,25,09,51,20.90
2010,04,25,09,52,11.30
2010,04,25,09,53,11.30
2010,04,25,09,54,17.70
2010,04,25,09,55,16.10
2010,04,25,09,56,19.30
2010,04,25,09,57,16.10
2010,04,25,09,58,11.30
2010,04,25,09,59,16.10
2010,04,25,10,00,14.50
2010,04,25,10,01,16.10
2010,04,25,10,02,14.50
2010,04,25,10,03,9.60
2010,04,25,10,04,11.30
2010,04,25,10,05,9.60
2010,04,25,10,06,12.90
2010,04,25,10,07,11.30
2010,04,25,10,08,9.60
2010,04,25,10,09,11.30
2010,04,25,10,10,14.50
2010,04,25,10,11,9.60
2010,04,25,10,12,6.40
2010,04,25,10,13,12.90
2010,04,25,10,14,8.10
2010,04,25,10,15,9.60
2010,04,25,10,16,6.40
2010,04,25,10,17,4.80
2010,04,25,10,18,16.10
2010,04,25,10,19,11.30
2010,04,25,10,20,17.70
2010,04,25,10,21,11.30
2010,04,25,10,22,9.60
2010,04,25,10,23,11.30
2010,04,25,10,24,8.10
2010,04,25,10,25,9.60
2010,04,25,10,26,9.60
2010,04,25,10,27,14.50
2010,04,25,10,28,8.10
2010,04,25,10,29,8.10
2010,04,25,10,30,3.20
2010,04,25,10,31,4.80
2010,04,25,10,32,6.40
2010,04,25,10,33,4.80
2010,04,25,10,34,9.60
2010,04,25,10,35,6.40
2010,04,25,10,36,6.40
2010,04,25,10,37,8.10
2010,04,25,10,38,8.10
2010,04,25,10,39,6.40
2010,04,25,10,40,6.40
2010,04,25,10,41,9.60
2010,04,25,10,42,6.40
2010,04,25,10,43,9.60
2010,04,25,10,44,11.30
2010,04,25,10,45,12.90
2010,04,25,10,46,16.10
2010,04,25,10,47,8.10
2010,04,25,10,48,11.30
2010,04,25,10,49,11.30
2010,04,25,10,50,6.40
2010,04,25,10,51,12.90
2010,04,25,10,52,16.10
2010,04,25,10,53,16.10
2010,04,25,10,54,12.90
2010,04,25,10,55,17.70
2010,04,25,10,56,16.10
2010,04,25,10,57,14.50
2010,04,25,10,58,9.60
2010,04,25,10,59,11.30
2010,04,25,11,00,14.50
2010,04,25,11,01,12.90
2010,04,25,11,02,8.10
2010,04,25,11,03,11.30
2010,04,25,11,04,8.10
2010,04,25,11,05,6.40
2010,04,25,11,06,8.10
2010,04,25,11,07,17.70
2010,04,25,11,08,17.70
2010,04,25,11,09,17.70
2010,04,25,11,10,16.10
2010,04,25,11,11,8.10
2010,04,25,11,12,11.30
2010,04,25,11,13,16.10
2010,04,25,11,14,16.10
2010,04,25,11,15,11.30
2010,04,25,11,16,11.30
2010,04,25,11,17,11.30
2010,04,25,11,18,8.10
2010,04,25,11,19,11.30
2010,04,25,11,20,12.90
2010,04,25,11,21,8.10
2010,04,25,11,22,12.90
2010,04,25,11,23,8.10
2010,04,25,11,24,11.30
2010,04,25,11,25,6.40
2010,04,25,11,26,11.30
2010,04,25,11,27,9.60
2010,04,25,11,28,14.50
2010,04,25,11,29,6.40
2010,04,25,11,30,8.10
2010,04,25,11,31,11.30
2010,04,25,11,32,17.70
2010,04,25,11,33,6.40
2010,04,25,11,34,8.10
2010,04,25,11,35,4.80
2010,04,25,11,36,24.20
2010,04,25,11,37,14.50
2010,04,25,11,38,11.30
2010,04,25,11,39,12.90
2010,04,25,11,40,16.10
2010,04,25,11,41,14.50
2010,04,25,11,42,17.70
2010,04,25,11,43,17.70
2010,04,25,11,44,22.50
2010,04,25,11,45,16.10
2010,04,25,11,46,16.10
2010,04,25,11,47,25.70
2010,04,25,11,48,20.90
2010,04,25,11,49,11.30
2010,04,25,11,50,17.70
2010,04,25,11,51,14.50
2010,04,25,11,52,16.10
2010,04,25,11,53,16.10
2010,04,25,11,54,12.90
2010,04,25,11,55,16.10
2010,04,25,11,56,16.10
2010,04,25,11,57,20.90
2010,04,25,11,58,17.70
2010,04,25,11,59,17.70
2010,04,25,12,00,11.30
2010,04,25,12,01,17.70
2010,04,25,12,02,11.30
2010,04,25,12,03,16.10
2010,04,25,12,04,9.60
2010,04,25,12,05,8.10
2010,04,25,12,06,17.70
2010,04,25,12,07,12.90
2010,04,25,12,08,16.10
2010,04,25,12,09,14.50
2010,04,25,12,10,9.60
2010,04,25,12,11,9.60
2010,04,25,12,12,14.50
2010,04,25,12,13,20.90
2010,04,25,12,14,19.30
2010,04,25,12,15,16.10
2010,04,25,12,16,20.90
2010,04,25,12,17,16.10
2010,04,25,12,18,19.30
2010,04,25,12,19,24.20
2010,04,25,12,20,20.90
2010,04,25,12,21,16.10
2010,04,25,12,22,22.50
2010,04,25,12,23,9.60
2010,04,25,12,24,16.10
2010,04,25,12,25,12.90
2010,04,25,12,26,11.30
2010,04,25,12,27,19.30
2010,04,25,12,28,24.20
2010,04,25,12,29,24.20
2010,04,25,12,30,19.30
2010,04,25,12,31,20.90
2010,04,25,12,32,20.90
2010,04,25,12,33,20.90
2010,04,25,12,34,14.50
2010,04,25,12,35,14.50
2010,04,25,12,36,19.30
2010,04,25,12,37,19.30
2010,04,25,12,38,11.30
2010,04,25,12,39,12.90
2010,04,25,12,40,16.10
2010,04,25,12,41,11.30
2010,04,25,12,42,8.10
2010,04,25,12,43,14.50
2010,04,25,12,44,17.70
2010,04,25,12,45,9.60
2010,04,25,12,46,8.10
2010,04,25,12,47,16.10
2010,04,25,12,48,17.70
2010,04,25,12,49,17.70
2010,04,25,12,50,14.50
2010,04,25,12,51,11.30
2010,04,25,12,52,11.30
2010,04,25,12,53,14.50
2010,04,25,12,54,11.30
2010,04,25,12,55,9.60
2010,04,25,12,56,14.50
2010,04,25,12,57,8.10
2010,04,25,12,58,11.30
2010,04,25,12,59,4.80
2010,04,25,13,00,16.10
2010,04,25,13,01,9.60
2010,04,25,13,02,9.60
2010,04,25,13,03,16.10
2010,04,25,13,04,4.80
2010,04,25,13,05,16.10
2010,04,25,13,06,9.60
2010,04,25,13,07,8.10
2010,04,25,13,08,14.50
2010,04,25,13,09,14.50
2010,04,25,13,10,12.90
2010,04,25,13,11,20.90
2010,04,25,13,12,16.10
2010,04,25,13,13,20.90
2010,04,25,13,14,25.70
2010,04,25,13,15,14.50
2010,04,25,13,16,16.10
2010,04,25,13,17,11.30
2010,04,25,13,18,22.50
2010,04,25,13,19,14.50
2010,04,25,13,20,16.10
2010,04,25,13,21,17.70
2010,04,25,13,22,17.70
2010,04,25,13,23,16.10
2010,04,25,13,24,14.50
2010,04,25,13,25,14.50
2010,04,25,13,26,4.80
2010,04,25,13,27,11.30
2010,04,25,13,28,9.60
2010,04,25,13,29,6.40
2010,04,25,13,30,11.30
2010,04,25,13,31,11.30
2010,04,25,13,32,24.20
2010,04,25,13,33,14.50
2010,04,25,13,34,11.30
2010,04,25,13,35,6.40
2010,04,25,13,36,11.30
2010,04,25,13,37,17.70
2010,04,25,13,38,9.60
2010,04,25,13,39,11.30
2010,04,25,13,40,9.60
2010,04,25,13,41,4.80
2010,04,25,13,42,3.20
2010,04,25,13,43,9.60
2010,04,25,13,44,16.10
2010,04,25,13,45,16.10
2010,04,25,13,46,11.30
2010,04,25,13,47,6.40
2010,04,25,13,48,12.90
2010,04,25,13,49,11.30
2010,04,25,13,50,8.10
2010,04,25,13,51,14.50
2010,04,25,13,52,16.10
2010,04,25,13,53,11.30
2010,04,25,13,54,8.10
2010,04,25,13,55,3.20
2010,04,25,13,56,9.60
2010,04,25,13,57,14.50
2010,04,25,13,58,6.40
2010,04,25,13,59,12.90
2010,04,25,14,00,8.10
2010,04,25,14,01,14.50
2010,04,25,14,02,6.40
2010,04,25,14,03,9.60
2010,04,25,14,04,6.40
2010,04,25,14,05,4.80
2010,04,25,14,06,9.60
2010,04,25,14,07,6.40
2010,04,25,14,08,17.70
2010,04,25,14,09,12.90
2010,04,25,14,10,12.90
2010,04,25,14,11,17.70
2010,04,25,14,12,22.50
2010,04,25,14,13,19.30
2010,04,25,14,14,19.30
2010,04,25,14,15,14.50
2010,04,25,14,16,8.10
2010,04,25,14,17,12.90
2010,04,25,14,18,12.90
2010,04,25,14,19,6.40
2010,04,25,14,20,14.50
2010,04,25,14,21,12.90
2010,04,25,14,22,16.10
2010,04,25,14,23,14.50
2010,04,25,14,24,14.50
2010,04,25,14,25,9.60
2010,04,25,14,26,9.60
2010,04,25,14,27,6.40
2010,04,25,14,28,16.10
2010,04,25,14,29,8.10
2010,04,25,14,30,16.10
2010,04,25,14,31,19.30
2010,04,25,14,32,14.50
2010,04,25,14,33,16.10
2010,04,25,14,34,16.10
2010,04,25,14,35,19.30
2010,04,25,14,36,11.30
2010,04,25,14,37,16.10
2010,04,25,14,38,14.50
2010,04,25,14,39,11.30
2010,04,25,14,40,16.10
2010,04,25,14,41,19.30
2010,04,25,14,42,11.30
2010,04,25,14,43,8.10
2010,04,25,14,44,17.70
2010,04,25,14,45,19.30
2010,04,25,14,46,19.30
2010,04,25,14,47,17.70
2010,04,25,14,48,11.30
2010,04,25,14,49,16.10
2010,04,25,14,50,17.70
2010,04,25,14,51,14.50
2010,04,25,14,52,16.10
2010,04,25,14,53,19.30
2010,04,25,14,54,17.70
2010,04,25,14,55,14.50
2010,04,25,14,56,14.50
2010,04,25,14,57,14.50
2010,04,25,14,58,9.60
2010,04,25,14,59,9.60
2010,04,25,15,00,9.60
2010,04,25,15,01,14.50
2010,04,25,15,02,16.10
2010,04,25,15,03,17.70
2010,04,25,15,04,12.90
2010,04,25,15,05,16.10
2010,04,25,15,06,16.10
2010,04,25,15,07,9.60
2010,04,25,15,08,14.50
2010,04,25,15,09,16.10
2010,04,25,15,10,14.50
2010,04,25,15,11,11.30
2010,04,25,15,12,9.60
2010,04,25,15,13,1.60
2010,04,25,15,14,6.40
2010,04,25,15,15,9.60
2010,04,25,15,16,8.10
2010,04,25,15,17,8.10
2010,04,25,15,18,16.10
2010,04,25,15,19,9.60
2010,04,25,15,20,12.90
2010,04,25,15,21,8.10
2010,04,25,15,22,16.10
2010,04,25,15,23,11.30
2010,04,25,15,24,11.30
2010,04,25,15,25,11.30
2010,04,25,15,26,16.10
2010,04,25,15,27,11.30
2010,04,25,15,28,14.50
2010,04,25,15,29,8.10
2010,04,25,15,30,4.80
2010,04,25,15,31,9.60
2010,04,25,15,32,11.30
2010,04,25,15,33,6.40
2010,04,25,15,34,11.30
2010,04,25,15,35,16.10
2010,04,25,15,36,9.60
2010,04,25,15,37,4.80
2010,04,25,15,38,8.10
2010,04,25,15,39,4.80
2010,04,25,15,40,4.80
2010,04,25,15,41,9.60
2010,04,25,15,42,16.10
2010,04,25,15,43,20.90
2010,04,25,15,44,14.50
2010,04,25,15,45,14.50
2010,04,25,15,46,11.30
2010,04,25,15,47,8.10
2010,04,25,15,48,11.30
2010,04,25,15,49,11.30
2010,04,25,15,50,9.60
2010,04,25,15,51,11.30
2010,04,25,15,52,16.10
2010,04,25,15,53,11.30
2010,04,25,15,54,17.70
2010,04,25,15,55,16.10
2010,04,25,15,56,17.70
2010,04,25,15,57,9.60
2010,04,25,15,58,9.60
2010,04,25,15,59,14.50
2010,04,25,16,00,1.60
2010,04,25,16,01,8.10
2010,04,25,16,02,6.40
2010,04,25,16,03,6.40
2010,04,25,16,04,11.30
2010,04,25,16,05,14.50
2010,04,25,16,06,17.70
2010,04,25,16,07,14.50
2010,04,25,16,08,8.10
2010,04,25,16,09,8.10
2010,04,25,16,10,9.60
2010,04,25,16,11,9.60
2010,04,25,16,12,14.50
2010,04,25,16,13,11.30
2010,04,25,16,14,16.10
2010,04,25,16,15,8.10
2010,04,25,16,16,14.50
2010,04,25,16,17,11.30
2010,04,25,16,18,9.60
2010,04,25,16,19,14.50
2010,04,25,16,20,16.10
2010,04,25,16,21,14.50
2010,04,25,16,22,11.30
2010,04,25,16,23,16.10
2010,04,25,16,24,16.10
2010,04,25,16,25,16.10
2010,04,25,16,26,16.10
2010,04,25,16,27,12.90
2010,04,25,16,28,11.30
2010,04,25,16,29,16.10
2010,04,25,16,30,16.10
2010,04,25,16,31,9.60
2010,04,25,16,32,16.10
2010,04,25,16,33,17.70
2010,04,25,16,34,16.10
2010,04,25,16,35,9.60
2010,04,25,16,36,6.40
2010,04,25,16,37,1.60
2010,04,25,16,38,9.60
2010,04,25,16,39,16.10
2010,04,25,16,40,6.40
2010,04,25,16,41,9.60
2010,04,25,16,42,11.30
2010,04,25,16,43,16.10
2010,04,25,16,44,17.70
2010,04,25,16,45,16.10
2010,04,25,16,46,11.30
2010,04,25,16,47,11.30
2010,04,25,16,48,9.60
2010,04,25,16,49,17.70
2010,04,25,16,50,14.50
2010,04,25,16,51,14.50
2010,04,25,16,52,14.50
2010,04,25,16,53,8.10
2010,04,25,16,54,9.60
2010,04,25,16,55,8.10
2010,04,25,16,56,16.10
2010,04,25,16,57,14.50
2010,04,25,16,58,9.60
2010,04,25,16,59,11.30
2010,04,25,17,00,11.30
2010,04,25,17,01,9.60
2010,04,25,17,02,16.10
2010,04,25,17,03,16.10
2010,04,25,17,04,4.80
2010,04,25,17,05,16.10
2010,04,25,17,06,14.50
2010,04,25,17,07,9.60
2010,04,25,17,08,11.30
2010,04,25,17,09,8.10
2010,04,25,17,10,14.50
2010,04,25,17,11,8.10
2010,04,25,17,12,9.60
2010,04,25,17,13,8.10
2010,04,25,17,14,16.10
2010,04,25,17,15,17.70
2010,04,25,17,16,17.70
2010,04,25,17,17,19.30
2010,04,25,17,18,16.10
2010,04,25,17,19,8.10
2010,04,25,17,20,11.30
2010,04,25,17,21,8.10
2010,04,25,17,22,12.90
2010,04,25,17,23,16.10
2010,04,25,17,24,8.10
2010,04,25,17,25,14.50
2010,04,25,17,26,11.30
2010,04,25,17,27,11.30
2010,04,25,17,28,9.60
2010,04,25,17,29,9.60
2010,04,25,17,30,4.80
2010,04,25,17,31,6.40
2010,04,25,17,32,16.10
2010,04,25,17,33,14.50
2010,04,25,17,34,6.40
2010,04,25,17,35,3.20
2010,04,25,17,36,12.90
2010,04,25,17,37,9.60
2010,04,25,17,38,16.10
2010,04,25,17,39,11.30
2010,04,25,17,40,11.30
2010,04,25,17,41,8.10
2010,04,25,17,42,17.70
2010,04,25,17,43,11.30
2010,04,25,17,44,9.60
2010,04,25,17,45,6.40
2010,04,25,17,46,6.40
2010,04,25,17,47,16.10
2010,04,25,17,48,11.30
2010,04,25,17,49,6.40
2010,04,25,17,50,8.10
2010,04,25,17,51,6.40
2010,04,25,17,52,8.10
2010,04,25,17,53,11.30
2010,04,25,17,54,9.60
2010,04,25,17,55,8.10
2010,04,25,17,56,6.40
2010,04,25,17,57,12.90
2010,04,25,17,58,8.10
2010,04,25,17,59,6.40
2010,04,25,18,00,8.10
2010,04,25,18,01,9.60
2010,04,25,18,02,16.10
2010,04,25,18,03,14.50
2010,04,25,18,04,16.10
2010,04,25,18,05,9.60
2010,04,25,18,06,11.30
2010,04,25,18,07,11.30
2010,04,25,18,08,11.30
2010,04,25,18,09,14.50
2010,04,25,18,10,14.50
2010,04,25,18,11,9.60
2010,04,25,18,12,6.40
2010,04,25,18,13,16.10
2010,04,25,18,14,14.50
2010,04,25,18,15,11.30
2010,04,25,18,16,8.10
2010,04,25,18,17,8.10
2010,04,25,18,18,11.30
2010,04,25,18,19,11.30
2010,04,25,18,20,8.10
2010,04,25,18,21,6.40
2010,04,25,18,22,9.60
2010,04,25,18,23,9.60
2010,04,25,18,24,4.80
2010,04,25,18,25,12.90
2010,04,25,18,26,16.10
2010,04,25,18,27,11.30
2010,04,25,18,28,9.60
2010,04,25,18,29,8.10
2010,04,25,18,30,16.10
2010,04,25,18,31,11.30
2010,04,25,18,32,11.30
2010,04,25,18,33,11.30
2010,04,25,18,34,9.60
2010,04,25,18,35,17.70
2010,04,25,18,36,14.50
2010,04,25,18,37,9.60
2010,04,25,18,38,11.30
2010,04,25,18,39,11.30
2010,04,25,18,40,12.90
2010,04,25,18,41,8.10
2010,04,25,18,42,9.60
2010,04,25,18,43,11.30
2010,04,25,18,44,14.50
2010,04,25,18,45,11.30
2010,04,25,18,46,16.10
2010,04,25,18,47,12.90
2010,04,25,18,48,14.50
2010,04,25,18,49,16.10
2010,04,25,18,50,12.90
2010,04,25,18,51,11.30
2010,04,25,18,52,11.30